Weather History for KCKC - January, 2014

Change the Weather History Date:

Tuesday, January 7, 2014

  Actual Average Record
Temperature  
Mean Temperature -16 °F -  
Max Temperature -9 °F 14 °F 44 °F (2003)
Min Temperature -23 °F 1 °F -23 °F (2014)
Degree Days  
Heating Degree Days 81    
Moisture  
Dew Point -24 °F    
Average Humidity 66    
Maximum Humidity 77    
Minimum Humidity 54    
Precipitation  
Precipitation 0.00 in - - ()
Sea Level Pressure  
Sea Level Pressure 29.81 in    
Wind  
Wind Speed 10 mph (WNW)    
Max Wind Speed 16 mph    
Max Gust Speed 26 mph    
Visibility 7 miles    
Events Snow    
Averages and records for this station are not official NWS values.
T = Trace of Precipitation, MM = Missing Value Source: NWS Daily Summary

Daily Weather History Graph

Daily Weather History Graph

Search for Another Location

Airport or City:

Trip Planner

Search our weather history database for the weather conditions in past years. The results will help you decide how hot, cold, wet, or windy it might be!

Date:

Astronomy

Jan. 07, 2014 Rise Set
Actual Time 7:49 AM CST 4:26 PM CST
Civil Twilight 7:14 AM CST 5:01 PM CST
Nautical Twilight 6:35 AM CST 5:40 PM CST
Astronomical Twilight 5:57 AM CST 6:18 PM CST
Moon 11:05 AM CST (1/7) No Moon Set
Length of Visible Light 9h 47m
Length of Day
8h 36m
Waxing Crescent, 46% of the Moon is Illuminated
Jan 7
Waxing Crescent
Jan 7
First Quarter
Jan 15
Full
Jan 23
Last Quarter
Jan 30
New

Hourly Weather History & Observations

Time (CST) Temp. Windchill Dew Point Humidity Pressure Visibility Wind Dir Wind Speed Gust Speed Precip Events Conditions
12:13 AM -22.0 °F -44.7 °F -29.2 °F 69% 29.68 in 5.0 mi WNW 11.5 mph 19.6 mph N/A   Haze
12:33 AM -20.2 °F -38.8 °F -29.2 °F 63% 29.69 in 4.0 mi West 8.1 mph 16.1 mph N/A   Haze
12:54 AM -20.2 °F -40.1 °F -29.2 °F 63% 29.69 in 3.0 mi West 9.2 mph - N/A   Haze
1:13 AM -20.2 °F -38.8 °F -29.2 °F 63% 29.69 in 4.0 mi West 8.1 mph 18.4 mph N/A   Haze
1:33 AM -20.2 °F -41.3 °F -29.2 °F 63% 29.69 in 4.0 mi West 10.4 mph 21.9 mph N/A   Haze
1:54 AM -20.2 °F -41.3 °F -29.2 °F 63% 29.69 in 5.0 mi West 10.4 mph - N/A   Haze
2:13 AM -20.2 °F -38.8 °F -29.2 °F 63% 29.70 in 5.0 mi West 8.1 mph 21.9 mph N/A   Haze
2:34 AM -22.0 °F -46.6 °F -31.0 °F 63% 29.70 in 5.0 mi West 13.8 mph 24.2 mph N/A   Haze
2:53 AM -23.8 °F -46.9 °F -31.0 °F 69% 29.69 in 4.0 mi WNW 11.5 mph 21.9 mph N/A   Haze
3:14 AM -23.8 °F -45.8 °F -31.0 °F 69% 29.69 in 4.0 mi West 10.4 mph 20.7 mph N/A   Haze
3:33 AM -22.0 °F -47.5 °F -31.0 °F 63% 29.69 in 5.0 mi WNW 15.0 mph 20.7 mph N/A   Haze
3:53 AM -22.0 °F -42.3 °F -31.0 °F 63% 29.69 in 4.0 mi WNW 9.2 mph 21.9 mph N/A   Haze
4:13 AM -22.0 °F -43.6 °F -31.0 °F 63% 29.69 in 3.0 mi WNW 10.4 mph 17.3 mph N/A   Haze
4:33 AM -22.0 °F -45.7 °F -29.2 °F 69% 29.68 in 4.0 mi WNW 12.7 mph 18.4 mph N/A   Haze
4:54 AM -20.2 °F -41.3 °F -29.2 °F 63% 29.69 in 4.0 mi WNW 10.4 mph 18.4 mph N/A   Haze
5:13 AM -20.2 °F -41.3 °F -29.2 °F 63% 29.69 in 3.0 mi WNW 10.4 mph 18.4 mph N/A   Haze
5:34 AM -20.2 °F -41.3 °F -27.4 °F 69% 29.69 in 3.0 mi WNW 10.4 mph 17.3 mph N/A   Haze
5:53 AM -20.2 °F -41.3 °F -29.2 °F 63% 29.70 in 3.0 mi WNW 10.4 mph 19.6 mph N/A   Haze
6:13 AM -20.2 °F -38.8 °F -27.4 °F 69% 29.70 in 4.0 mi West 8.1 mph 16.1 mph N/A   Haze
6:33 AM -20.2 °F -41.3 °F -27.4 °F 69% 29.71 in 3.0 mi WNW 10.4 mph - N/A   Haze
6:53 AM -20.2 °F -40.1 °F -29.2 °F 63% 29.72 in 4.0 mi WNW 9.2 mph 18.4 mph N/A   Haze
7:14 AM -20.2 °F -41.3 °F -29.2 °F 63% 29.72 in 4.0 mi WNW 10.4 mph - N/A   Haze
7:33 AM -20.2 °F -40.1 °F -29.2 °F 63% 29.73 in 2.5 mi WNW 9.2 mph - N/A   Haze
7:53 AM -20.2 °F -43.4 °F -29.2 °F 63% 29.73 in 3.0 mi WNW 12.7 mph 18.4 mph N/A   Haze
8:14 AM -20.2 °F -41.3 °F -29.2 °F 63% 29.74 in 2.5 mi WNW 10.4 mph 23.0 mph N/A   Haze
8:33 AM -20.2 °F -42.4 °F -29.2 °F 63% 29.75 in 2.5 mi WNW 11.5 mph 20.7 mph N/A   Haze
8:53 AM -20.2 °F -41.3 °F -29.2 °F 63% 29.76 in 4.0 mi WNW 10.4 mph 18.4 mph N/A   Haze
9:13 AM -20.2 °F -35.5 °F -29.2 °F 63% 29.77 in 7.0 mi West 5.8 mph 18.4 mph N/A   Scattered Clouds
9:33 AM -18.4 °F -33.4 °F -27.4 °F 63% 29.77 in 10.0 mi West 5.8 mph - N/A   Mostly Cloudy
9:54 AM -16.6 °F -31.3 °F -25.6 °F 64% 29.78 in 7.0 mi West 5.8 mph - N/A   Overcast
10:13 AM -14.8 °F -30.8 °F -25.6 °F 58% 29.80 in 7.0 mi West 6.9 mph - N/A   Overcast
10:33 AM -14.8 °F -29.1 °F -25.6 °F 58% 29.80 in 7.0 mi West 5.8 mph - N/A   Mostly Cloudy
10:54 AM -14.8 °F -32.2 °F -23.8 °F 64% 29.80 in 7.0 mi West 8.1 mph - N/A   Clear
11:13 AM -11.2 °F -27.8 °F -23.8 °F 54% 29.80 in 10.0 mi West 8.1 mph - N/A   Clear
11:33 AM -11.2 °F -27.8 °F -23.8 °F 54% 29.79 in 10.0 mi WNW 8.1 mph - N/A   Clear
11:54 AM -11.2 °F -29.0 °F -22.0 °F 59% 29.81 in 10.0 mi West 9.2 mph - N/A   Clear
12:13 PM -9.4 °F -24.3 °F -20.2 °F 59% 29.80 in 10.0 mi WNW 6.9 mph 16.1 mph N/A   Clear
12:34 PM -9.4 °F -30.6 °F -20.2 °F 59% 29.81 in 10.0 mi WNW 13.8 mph 21.9 mph N/A   Clear
12:54 PM -9.4 °F -28.9 °F -20.2 °F 59% 29.81 in 10.0 mi NW 11.5 mph 18.4 mph N/A   Clear
1:13 PM -9.4 °F -32.1 °F -20.2 °F 59% 29.82 in 4.0 mi NW 16.1 mph 26.5 mph N/A   Haze
1:34 PM -9.4 °F -31.4 °F -20.2 °F 59% 29.82 in 7.0 mi WNW 15.0 mph 20.7 mph N/A Snow Light Snow
1:53 PM -9.4 °F -28.9 °F -20.2 °F 59% 29.83 in 7.0 mi WNW 11.5 mph 18.4 mph N/A Snow Light Snow
2:13 PM -9.4 °F -22.7 °F -20.2 °F 59% 29.84 in 10.0 mi WNW 5.8 mph 20.7 mph N/A Snow Light Snow
2:33 PM -9.4 °F -27.9 °F -20.2 °F 59% 29.84 in 10.0 mi WNW 10.4 mph - N/A   Clear
2:54 PM -11.2 °F -32.1 °F -20.2 °F 64% 29.86 in 10.0 mi West 12.7 mph 18.4 mph N/A   Clear
3:13 PM -11.2 °F -26.4 °F -20.2 °F 64% 29.86 in 10.0 mi WNW 6.9 mph - N/A   Clear
3:33 PM -11.2 °F -31.1 °F -20.2 °F 64% 29.87 in 10.0 mi WNW 11.5 mph 18.4 mph N/A   Clear
3:54 PM -11.2 °F -29.0 °F -20.2 °F 64% 29.87 in 10.0 mi West 9.2 mph - N/A   Scattered Clouds
4:13 PM -13.0 °F -27.0 °F -20.2 °F 70% 29.87 in 10.0 mi West 5.8 mph - N/A   Scattered Clouds
4:33 PM -11.2 °F -29.0 °F -18.4 °F 70% 29.87 in 10.0 mi WNW 9.2 mph 21.9 mph N/A   Scattered Clouds
4:54 PM -11.2 °F -23.0 °F -20.2 °F 64% 29.88 in 10.0 mi West 4.6 mph - N/A   Scattered Clouds
5:13 PM -13.0 °F -28.6 °F -20.2 °F 70% 29.89 in 10.0 mi West 6.9 mph 17.3 mph N/A   Scattered Clouds
5:33 PM -14.8 °F -34.6 °F -20.2 °F 77% 29.90 in 10.0 mi West 10.4 mph - N/A   Clear
5:54 PM -14.8 °F -30.8 °F -20.2 °F 77% 29.91 in 10.0 mi West 6.9 mph - N/A   Clear
6:14 PM -14.8 °F -27.2 °F -20.2 °F 77% 29.91 in 10.0 mi West 4.6 mph - N/A   Scattered Clouds
6:34 PM -14.8 °F -30.8 °F -20.2 °F 77% 29.92 in 10.0 mi WNW 6.9 mph - N/A   Mostly Cloudy
6:54 PM -14.8 °F -29.1 °F -20.2 °F 77% 29.93 in 10.0 mi NW 5.8 mph - N/A   Scattered Clouds
7:13 PM -14.8 °F -29.1 °F -20.2 °F 77% 29.93 in 10.0 mi WNW 5.8 mph - N/A   Scattered Clouds
7:33 PM -14.8 °F -32.2 °F -20.2 °F 77% 29.94 in 10.0 mi WNW 8.1 mph - N/A   Clear
7:53 PM -13.0 °F -33.4 °F -20.2 °F 70% 29.94 in 10.0 mi WNW 11.5 mph 18.4 mph N/A   Clear
8:14 PM -13.0 °F -32.4 °F -20.2 °F 70% 29.94 in 10.0 mi WNW 10.4 mph 18.4 mph N/A   Scattered Clouds
8:33 PM -14.8 °F -38.3 °F -20.2 °F 77% 29.94 in 10.0 mi WNW 15.0 mph 20.7 mph N/A   Scattered Clouds
8:54 PM -14.8 °F -38.3 °F -20.2 °F 77% 29.95 in 10.0 mi WNW 15.0 mph 21.9 mph N/A   Scattered Clouds
9:14 PM -14.8 °F -35.6 °F -20.2 °F 77% 29.95 in 10.0 mi WNW 11.5 mph 18.4 mph N/A   Clear
9:33 PM -14.8 °F -34.6 °F -20.2 °F 77% 29.96 in 10.0 mi WNW 10.4 mph 21.9 mph N/A   Clear
9:53 PM -14.8 °F -33.5 °F -22.0 °F 70% 29.96 in 10.0 mi WNW 9.2 mph 18.4 mph N/A   Scattered Clouds
10:14 PM -14.8 °F -35.6 °F -22.0 °F 70% 29.96 in 10.0 mi WNW 11.5 mph 18.4 mph N/A   Scattered Clouds
10:33 PM -14.8 °F -33.5 °F -22.0 °F 70% 29.96 in 10.0 mi WNW 9.2 mph 16.1 mph N/A   Clear
10:54 PM -14.8 °F -30.8 °F -22.0 °F 70% 29.98 in 10.0 mi NW 6.9 mph 16.1 mph N/A   Scattered Clouds
11:13 PM -14.8 °F -35.6 °F -22.0 °F 70% 29.98 in 10.0 mi NW 11.5 mph 17.3 mph N/A   Scattered Clouds
11:33 PM -14.8 °F -33.5 °F -23.8 °F 64% 29.98 in 10.0 mi WNW 9.2 mph 17.3 mph N/A   Scattered Clouds
11:54 PM -14.8 °F -33.5 °F -22.0 °F 70% 29.98 in 10.0 mi NW 9.2 mph 17.3 mph N/A   Scattered Clouds